Location: Oklahoma City
(35.4680°N, 97.5160°W)
Time: 09:36:58
(UTC-06:00)

ISS - Visible Passes

Search period start: 24 February 2024 00:00
Search period end: 05 March 2024 00:00
Orbit: 415 x 422 km, 51.6° (Epoch: 24 February)

Date Brightness Start Highest point End Pass type
(mag) Time Alt. Az. Time Alt. Az. Time Alt. Az.
01 Mar -0.9 06:18:05 10° N 06:19:32 12° NNE 06:20:56 10° NE visible
03 Mar -1.7 06:24:21 10° NNW 06:27:22 27° NNE 06:30:24 10° E visible
04 Mar -1.2 05:40:26 10° NNW 05:43:03 19° NNE 05:45:40 10° ENE visible
